GEESAT 6-07

基本信息
目录编号:
65719
目录名称:
GEESAT 6-07
国际标识:
2025-214H
轨道中心:
EARTH
卫星名称:
GEESAT 6-07
卫星全名:
GEESAT 6-07
卫星状态:
在轨 (已飞行26 天)
发射日期:
2025-09-24 UTC
国别 :
中国 (CN)
星等 :
--
轨道信息
数据来源 国际轨道数据
星历时间: 2025-10-18T23:06:11+0800
2天前
查看轨道信息
半长轴: 6978.491km
偏心率: 0.0015441
轨道倾角: 49.970°
近地点辐角 50.460°
升交点赤经 348.649°
平近点角 309.770°
近地点: 589.58km
远地点: 611.132km
周期: 96.695分钟
每日圈数: 14.892257
详细信息
使用方式:
暂无
2D轨道图
3D轨道图
轨道高度分析图
轨道倾角分析图
轨道综合分析图
查看轨道综合分析图